Regional Weather Roundup
Issued by NWS Charleston, SC

Current Version | Previous Version | Graphics & Text | Print | Product List | Glossary On
Versions: 1 2 3 4 5 6 7 8 9 10 11 12 13 14 15 16 17 18 19 20 21 22 23 24 25 26 27 28 29 30 31 32 33 34 35 36 37 38 39 40 41 42 43 44 45 46 47 48 49 50
000
ASUS42 KCHS 220310
RWRCHS

REGIONAL WEATHER ROUNDUP
NATIONAL WEATHER SERVICE CHARLESTON SC
1100 PM EDT THU AUG 21 2014

NOTE: "FAIR" INDICATES FEW OR NO CLOUDS BELOW 12,000 FEET WITH NO
SIGNIFICANT WEATHER AND/OR OBSTRUCTIONS TO VISIBILITY.

NOT ALL STATIONS ARE QUALITY CONTROLLED BY THE NATIONAL
WEATHER SERVICE. USE DATA WITH CAUTION...ESPECIALLY
DEWPOINT OBSERVATIONS.

SCZ027-030-031-034>040-042>050-220400-
...SOUTH CAROLINA...

CITY           SKY/WX    TMP DP  RH WIND       PRES   REMARKS
N CHARLESTON   PTCLDY    81  74  79 SW3       30.06S
WATERFRONT PRK   N/A     86 N/A N/A SW5         N/A
FORT JOHNSON   NOT AVBL
MOUNT PLEASANT FAIR      81  81 100 CALM      30.06S FOG     HX  91
JOHNS ISLAND   CLEAR     82  82 100 CALM      30.07S HX  97
PINOPOLIS        N/A     88  77  70 MISG      29.98S HX 100
MONCKS CORNER    N/A     79  79 100 CALM      30.06S
SUMMERVILLE    NOT AVBL
BEAUFORT MCAS  CLEAR     82  77  84 W3        30.07R HX  90
BEAUFORT ARPT  FAIR      82  81  94 SW3       30.06S HX  95
HILTON HEAD IS CLEAR     82  81  94 S3        30.08S HX  95
GEORGETOWN     NOT AVBL
WALTERBORO     CLEAR     79  79 100 CALM      30.07F
ORANGEBURG     PTCLDY    78  71  79 CALM      30.07S
BARNWELL       FAIR      79  70  73 CALM      30.08S
AIKEN          FAIR      81  70  69 CALM      30.12R
MANNING        FAIR      79 N/A N/A CALM      30.06S
KINGSTREE      NOT AVBL
COLUMBIA       CLEAR     81  72  74 CALM      30.06S
SUMTER         CLEAR     78  72  83 CALM      30.05S
FLORENCE       CLEAR     78  70  76 CALM      30.06S
MYRTLE BEACH   PTCLDY    81  72  74 SW5       30.06R
N MYRTLE BEACH PTCLDY    77  75  93 CALM      30.05S

$$

GAZ063-065-086>088-099>101-113>116-118-119-134-136>141-150-220400-
...GEORGIA...

CITY           SKY/WX    TMP DP  RH WIND       PRES   REMARKS
SAVANNAH ARPT  CLEAR     84  74  71 E3        30.08R HX  91
HUNTER AAF     CLEAR     83  80  88 SE6       30.06R HX  96
FORT STEWART   CLEAR     78  70  75 CALM      30.06R
STATESBORO     NOT AVBL
SYLVANIA       CLEAR     77  74  91 CALM      30.09S
CLAXTON        FAIR      77  77 100 CALM      30.07F
THOMSON        CLEAR     77  75  94 CALM      30.13S
AUGUSTA-BUSH   CLEAR     76  71  85 SW3       30.07R
AUGUSTA-DANIEL CLEAR     87  68  52 NW5       30.09R HX  90
SWAINSBORO     FAIR      79  73  83 CALM      30.09F
VIDALIA          N/A     81  73  78 W3        30.09S
ALMA           PTCLDY    81  71  71 NW3       30.09R
WAYCROSS       PTCLDY    85  76  74 CALM      30.09R HX  95
JESUP            N/A     81  75  83 CALM      30.07S
BRUNSWICK      CLEAR     81  75  83 CALM      30.08S
SAINT SIMONS   CLEAR     84  75  74 S6        30.07S HX  92

$$

SCZ027-028-034-036>038-045-046-048>050-GAZ119-141-220400-
...LAKE AND SUPPLEMENTAL COASTAL OBSERVATIONS...

STATION/POSITION TIME  TEMP    WIND        PRES    WAVE   SWELL
                       AIR SEA DIR/SP/G            HT/PER HT/PER/DIR
                 (UTC) (F)     (DEG/KT/KT) (MB)    (FT/S) (FT/S/D)
UPR LAKE MARION  NOT AVBL
WINYAH BAY       0200   81     260/  2     1017.0S
LAKE MURRAY      0200   84      CALM  /  2 1017.6R
ACE BASIN NERRS  0200   82        CALM     1018.0S
FORT PULASKI     0300   84     190/  3/  5 1018.6S
SAPELO ISLAND    0200   85     170/  8     1019.0S

$$

ANZ835-935-AMZ111-154-330-350-352-354-374-450-454-472-220400-
...C-MAN AND BUOY OBSERVATIONS...

STATION/POSITION TIME  TEMP    WIND        PRES    WAVE   SWELL
                       AIR SEA DIR/SP/G            HT/PER HT/PER/DIR
                 (UTC) (F)     (DEG/KT/KT) (MB)    (FT/S) (FT/S/D)
FOLLY BEACH CMAN 0200   84     220/  5/  7 1018.2R
BUOY 41004       0300   84 85  210/  6/  8 1017.9R   2/ 8   2/ 8
BUOY 41008       0300   85 85  200/ 12/ 14 1018.4R   1/ 3
5E ST. MARYS GA  0300      83                N/A     1/ 3
FRYING PAN BUOY  NOT AVBL
BUOY 41025       0300   81     200/  6/  8 1016.9S   2/ 9   2/ 70/ 9
CAPE LOOKOUT NC  0200   82     230/  6/  6 1017.2R
BUOY 41002       0153   82 82  240/  8/ 10 1019.0R   2/ 5   2/250/ 5
BUOY 41010       0300   85 86  190/  4/  6 1020.2S   1/ 4   2/130/ 8
BUOY 41012       NOT AVBL
ST AUGUSTINE FL  0300   78     260/  7/  9 1020.0F
CAPERS NEARSHORE NOT AVBL
FRIPP NEARSHORE  NOT AVBL


$$


USA.gov is the U.S. government's official web portal to all federal, state and local government web resources and services.